BAW821 EKCH-EGLL

Flight info

Callsign BAW821
Flight time 1h 36m
Altitude 36000
Route LANGO DCT ABNED L980 LOGAN
Aircraft A320/M-SDE3FGHIRWY/LB1

Departure

Time 2026-04-24 19:24
Airport Copenhagen Kastrup Airport (EKCH)

Arrival

Time 2026-04-24 21:00
Airport London Heathrow Airport (EGLL)
Time Latitude Longitude Altitude Speed Heading
2026-04-24 18:54 55.62728 12.65251 19 ft 0 kts
2026-04-24 19:07 55.62726 12.65250 19 ft 1 kts
2026-04-24 19:08 55.62709 12.65247 19 ft 3 kts 359°
2026-04-24 19:08 55.62689 12.65250 21 ft 3 kts 343°
2026-04-24 19:08 55.62671 12.65263 21 ft 2 kts 328°
2026-04-24 19:08 55.62665 12.65269 22 ft 0 kts 325°
2026-04-24 19:09 55.62659 12.65281 20 ft 2 kts 247°
2026-04-24 19:09 55.62662 12.65306 22 ft 1 kts 271°
2026-04-24 19:10 55.62662 12.65311 22 ft 0 kts 272°
2026-04-24 19:14 55.62662 12.65331 23 ft 2 kts 272°
2026-04-24 19:14 55.62662 12.65346 22 ft 0 kts 272°
2026-04-24 19:15 55.62662 12.65338 22 ft 1 kts 272°
2026-04-24 19:15 55.62662 12.65325 22 ft 0 kts 272°
2026-04-24 19:15 55.62662 12.65318 22 ft 1 kts 272°
2026-04-24 19:15 55.62655 12.65236 21 ft 16 kts 246°
2026-04-24 19:16 55.62445 12.65187 19 ft 13 kts 178°
2026-04-24 19:16 55.62351 12.65193 22 ft 14 kts 178°
2026-04-24 19:16 55.62275 12.65197 21 ft 10 kts 178°
2026-04-24 19:17 55.62208 12.65178 23 ft 9 kts 208°
2026-04-24 19:17 55.62155 12.65118 26 ft 9 kts 212°
2026-04-24 19:17 55.62097 12.65050 24 ft 12 kts 213°
2026-04-24 19:17 55.62020 12.64962 21 ft 14 kts 213°
2026-04-24 19:18 55.61929 12.64857 17 ft 18 kts 213°
2026-04-24 19:18 55.61820 12.64734 21 ft 18 kts 213°
2026-04-24 19:18 55.61711 12.64606 21 ft 20 kts 213°
2026-04-24 19:18 55.61596 12.64475 24 ft 20 kts 213°
2026-04-24 19:19 55.61473 12.64334 24 ft 22 kts 213°
2026-04-24 19:19 55.61333 12.64174 20 ft 25 kts 213°
2026-04-24 19:19 55.61202 12.64021 20 ft 22 kts 213°
2026-04-24 19:19 55.61083 12.63883 21 ft 20 kts 213°
2026-04-24 19:20 55.60963 12.63745 22 ft 16 kts 213°
2026-04-24 19:20 55.60876 12.63646 21 ft 12 kts 213°
2026-04-24 19:20 55.60799 12.63558 22 ft 14 kts 213°
2026-04-24 19:20 55.60705 12.63448 19 ft 18 kts 212°
2026-04-24 19:21 55.60605 12.63315 19 ft 19 kts 220°
2026-04-24 19:21 55.60507 12.63165 21 ft 18 kts 221°
2026-04-24 19:21 55.60422 12.63117 23 ft 12 kts 157°
2026-04-24 19:21 55.60361 12.63237 25 ft 13 kts 128°
2026-04-24 19:22 55.60338 12.63328 26 ft 12 kts 85°
2026-04-24 19:22 55.60363 12.63393 27 ft 0 kts 40°
2026-04-24 19:22 55.60363 12.63394 25 ft 1 kts 40°
2026-04-24 19:22 55.60378 12.63416 26 ft 5 kts 40°
2026-04-24 19:23 55.60415 12.63473 22 ft 10 kts 41°
2026-04-24 19:23 55.60627 12.63796 24 ft 74 kts 41°
2026-04-24 19:23 55.61162 12.64624 19 ft 129 kts 41°
2026-04-24 19:23 55.61950 12.65840 26 ft 171 kts 40°
2026-04-24 19:24 55.62863 12.67246 480 ft 175 kts 39°
2026-04-24 19:24 55.63786 12.68684 1086 ft 178 kts 38°
2026-04-24 19:24 55.64700 12.70129 1533 ft 179 kts 37°
2026-04-24 19:24 55.65694 12.71677 1751 ft 200 kts 36°
2026-04-24 19:25 55.66833 12.73357 1981 ft 226 kts 34°
2026-04-24 19:25 55.68089 12.75276 2366 ft 251 kts 44°
2026-04-24 19:25 55.68899 12.78141 2950 ft 272 kts 77°
2026-04-24 19:25 55.68842 12.81532 3749 ft 283 kts 104°
2026-04-24 19:26 55.67920 12.84595 4649 ft 286 kts 132°
2026-04-24 19:26 55.66317 12.86657 5469 ft 288 kts 160°
2026-04-24 19:26 55.64364 12.87485 6230 ft 291 kts 174°
2026-04-24 19:26 55.62341 12.87989 6949 ft 296 kts 175°
2026-04-24 19:27 55.60286 12.88467 7682 ft 301 kts 175°
2026-04-24 19:27 55.58186 12.88947 8431 ft 306 kts 175°
2026-04-24 19:27 55.56061 12.89411 9186 ft 309 kts 179°
2026-04-24 19:27 55.53939 12.89035 9882 ft 306 kts 202°
2026-04-24 19:28 55.52060 12.87352 10369 ft 308 kts 224°
2026-04-24 19:28 55.50646 12.84485 10536 ft 316 kts 247°
2026-04-24 19:28 55.49662 12.80894 10663 ft 336 kts 250°
2026-04-24 19:28 55.48649 12.77040 10805 ft 355 kts 250°
2026-04-24 19:29 55.46495 12.68997 11888 ft 367 kts 250°
2026-04-24 19:29 55.45388 12.64937 12520 ft 370 kts 250°
2026-04-24 19:29 55.44263 12.60838 13158 ft 372 kts 250°
2026-04-24 19:30 55.43131 12.56731 13795 ft 375 kts 250°
2026-04-24 19:30 55.41993 12.52592 14365 ft 377 kts 250°
2026-04-24 19:30 55.40844 12.48406 14941 ft 380 kts 250°
2026-04-24 19:30 55.39692 12.44210 15498 ft 382 kts 250°
2026-04-24 19:31 55.38530 12.39985 16043 ft 385 kts 250°
2026-04-24 19:31 55.37359 12.35737 16630 ft 387 kts 250°
2026-04-24 19:31 55.36181 12.31465 17215 ft 390 kts 249°
2026-04-24 19:31 55.34990 12.27153 17783 ft 393 kts 249°
2026-04-24 19:32 55.33790 12.22814 18322 ft 396 kts 249°
2026-04-24 19:32 55.32581 12.18457 18801 ft 399 kts 249°
2026-04-24 19:32 55.31360 12.14064 19275 ft 402 kts 249°
2026-04-24 19:32 55.30130 12.09650 19744 ft 404 kts 249°
2026-04-24 19:33 55.28886 12.05205 20206 ft 407 kts 249°
2026-04-24 19:33 55.27633 12.00733 20648 ft 410 kts 249°
2026-04-24 19:33 55.26372 11.96239 21077 ft 412 kts 249°
2026-04-24 19:33 55.25101 11.91716 21476 ft 415 kts 249°
2026-04-24 19:34 55.23819 11.87169 21868 ft 417 kts 249°
2026-04-24 19:34 55.22527 11.82595 22248 ft 420 kts 249°
2026-04-24 19:34 55.21226 11.78003 22598 ft 422 kts 248°
2026-04-24 19:34 55.19919 11.73392 22922 ft 425 kts 248°
2026-04-24 19:35 55.18597 11.68734 23265 ft 428 kts 248°
2026-04-24 19:35 55.17268 11.64055 23599 ft 431 kts 248°
2026-04-24 19:35 55.15928 11.59344 23873 ft 433 kts 248°
2026-04-24 19:35 55.14586 11.54634 24159 ft 435 kts 248°
2026-04-24 19:36 55.13233 11.49896 24473 ft 436 kts 248°
2026-04-24 19:36 55.12330 11.46750 24679 ft 437 kts 248°
2026-04-24 19:36 55.10965 11.42003 25008 ft 438 kts 247°
2026-04-24 19:36 55.09600 11.37277 25436 ft 436 kts 247°
2026-04-24 19:37 55.08232 11.32552 25886 ft 434 kts 247°
2026-04-24 19:37 55.06877 11.27871 26348 ft 433 kts 247°
2026-04-24 19:37 55.05519 11.23183 26803 ft 431 kts 247°
2026-04-24 19:37 55.04172 11.18527 27271 ft 429 kts 247°
2026-04-24 19:38 55.02829 11.13899 27749 ft 428 kts 247°
2026-04-24 19:38 55.01485 11.09285 28196 ft 426 kts 247°
2026-04-24 19:38 55.00147 11.04691 28663 ft 424 kts 247°
2026-04-24 19:38 54.98814 11.00121 29149 ft 423 kts 246°
2026-04-24 19:39 54.97480 10.95568 29644 ft 421 kts 246°
2026-04-24 19:39 54.96150 10.91034 30118 ft 420 kts 246°
2026-04-24 19:39 54.94814 10.86522 30500 ft 419 kts 245°
2026-04-24 19:39 54.93413 10.82071 30859 ft 420 kts 244°
2026-04-24 19:40 54.91937 10.77678 31238 ft 420 kts 242°
2026-04-24 19:40 54.90424 10.73347 31624 ft 420 kts 242°
2026-04-24 19:40 54.88890 10.69028 32025 ft 419 kts 242°
2026-04-24 19:40 54.87362 10.64730 32423 ft 418 kts 242°
2026-04-24 19:41 54.85844 10.60424 32817 ft 417 kts 242°
2026-04-24 19:41 54.84339 10.56126 33210 ft 416 kts 242°
2026-04-24 19:41 54.82840 10.51826 33611 ft 416 kts 242°
2026-04-24 19:41 54.81348 10.47541 34004 ft 415 kts 242°
2026-04-24 19:42 54.79858 10.43266 34299 ft 415 kts 241°
2026-04-24 19:42 54.78362 10.38985 34599 ft 415 kts 241°
2026-04-24 19:42 54.76866 10.34722 34898 ft 414 kts 241°
2026-04-24 19:42 54.75370 10.30465 35201 ft 413 kts 241°
2026-04-24 19:43 54.73878 10.26227 35490 ft 412 kts 241°
2026-04-24 19:43 54.72385 10.21995 35803 ft 412 kts 241°
2026-04-24 19:43 54.70892 10.17770 36029 ft 412 kts 241°
2026-04-24 19:44 54.67881 10.09267 36097 ft 420 kts 241°
2026-04-24 19:44 54.64790 10.00571 36096 ft 427 kts 241°
2026-04-24 19:45 54.61703 9.91917 36101 ft 421 kts 241°
2026-04-24 19:45 54.58605 9.83254 36108 ft 425 kts 240°
2026-04-24 19:46 54.55490 9.74585 36111 ft 425 kts 240°
2026-04-24 19:46 54.52366 9.65943 36104 ft 426 kts 240°
2026-04-24 19:47 54.49233 9.57299 36109 ft 427 kts 240°
2026-04-24 19:47 54.46092 9.48640 36106 ft 427 kts 240°
2026-04-24 19:48 54.42939 9.39991 36111 ft 427 kts 240°
2026-04-24 19:48 54.38203 9.27043 36119 ft 427 kts 240°
2026-04-24 19:49 54.31876 9.09863 36151 ft 426 kts 240°
2026-04-24 19:50 54.25551 8.92815 36134 ft 425 kts 240°
2026-04-24 19:51 54.20785 8.80014 36150 ft 426 kts 239°
2026-04-24 19:52 54.15987 8.67218 36173 ft 426 kts 239°
2026-04-24 19:52 54.12785 8.58726 36196 ft 425 kts 240°
2026-04-24 19:53 54.09598 8.50267 36212 ft 424 kts 239°
2026-04-24 19:54 54.04798 8.37620 36204 ft 424 kts 239°
2026-04-24 19:54 54.01586 8.29200 36201 ft 425 kts 239°
2026-04-24 19:55 53.98913 8.22199 36211 ft 425 kts 239°
2026-04-24 19:55 53.95146 8.12365 36208 ft 424 kts 239°
2026-04-24 19:56 53.91929 8.04013 36217 ft 421 kts 239°
2026-04-24 19:56 53.88722 7.95714 36229 ft 420 kts 239°
2026-04-24 19:57 53.85518 7.87454 36233 ft 419 kts 239°
2026-04-24 19:57 53.82328 7.79257 36235 ft 419 kts 239°
2026-04-24 19:58 53.79098 7.70965 36229 ft 420 kts 239°
2026-04-24 19:58 53.75878 7.62729 36219 ft 420 kts 239°
2026-04-24 19:59 53.72655 7.54512 36232 ft 418 kts 239°
2026-04-24 19:59 53.69460 7.46406 36247 ft 416 kts 239°
2026-04-24 20:00 53.66234 7.38252 36247 ft 415 kts 239°
2026-04-24 20:00 53.63032 7.30193 36247 ft 413 kts 239°
2026-04-24 20:01 53.59834 7.22145 36245 ft 414 kts 238°
2026-04-24 20:01 53.56621 7.14095 36231 ft 415 kts 238°
2026-04-24 20:02 53.53941 7.07395 36230 ft 415 kts 238°
2026-04-24 20:02 53.50171 6.98003 36245 ft 414 kts 239°
2026-04-24 20:03 53.46955 6.90016 36260 ft 412 kts 239°
2026-04-24 20:03 53.43762 6.82119 36261 ft 411 kts 239°
2026-04-24 20:04 53.40540 6.74170 36242 ft 408 kts 239°
2026-04-24 20:04 53.37435 6.66535 36338 ft 404 kts 238°
2026-04-24 20:05 53.34276 6.58713 36384 ft 401 kts 239°
2026-04-24 20:05 53.31414 6.51381 36588 ft 402 kts 240°
2026-04-24 20:05 53.29901 6.47446 36691 ft 406 kts 239°
2026-04-24 20:06 53.28294 6.43539 36684 ft 410 kts 237°
2026-04-24 20:06 53.24933 6.35793 36492 ft 412 kts 237°
2026-04-24 20:06 53.23259 6.31916 36361 ft 412 kts 237°
2026-04-24 20:07 53.22143 6.29293 36243 ft 411 kts 238°
2026-04-24 20:07 53.18357 6.20186 36252 ft 411 kts 238°
2026-04-24 20:08 53.15119 6.12335 36259 ft 411 kts 238°
2026-04-24 20:08 53.11852 6.04465 36250 ft 415 kts 238°
2026-04-24 20:09 53.08553 5.96581 36249 ft 413 kts 238°
2026-04-24 20:09 53.05278 5.88767 36265 ft 411 kts 238°
2026-04-24 20:10 53.02002 5.80982 36273 ft 411 kts 238°
2026-04-24 20:10 52.98725 5.73223 36280 ft 411 kts 238°
2026-04-24 20:11 52.95444 5.65468 36286 ft 410 kts 238°
2026-04-24 20:11 52.92161 5.57733 36292 ft 410 kts 238°
2026-04-24 20:12 52.88866 5.50007 36285 ft 411 kts 238°
2026-04-24 20:12 52.85577 5.42277 36277 ft 411 kts 238°
2026-04-24 20:13 52.82282 5.34571 36281 ft 410 kts 238°
2026-04-24 20:13 52.78976 5.26889 36285 ft 410 kts 238°
2026-04-24 20:14 52.75666 5.19213 36290 ft 410 kts 238°
2026-04-24 20:14 52.72351 5.11556 36287 ft 410 kts 237°
2026-04-24 20:15 52.69033 5.03909 36288 ft 410 kts 237°
2026-04-24 20:15 52.65719 4.96274 36258 ft 410 kts 237°
2026-04-24 20:16 52.62397 4.88649 36266 ft 410 kts 237°
2026-04-24 20:16 52.59066 4.81040 36274 ft 410 kts 237°
2026-04-24 20:17 52.55722 4.73434 36276 ft 410 kts 237°
2026-04-24 20:17 52.50701 4.62042 36279 ft 410 kts 237°
2026-04-24 20:18 52.47350 4.54462 36280 ft 410 kts 237°
2026-04-24 20:18 52.44565 4.48171 36279 ft 410 kts 237°
2026-04-24 20:19 52.40657 4.39378 36254 ft 411 kts 237°
2026-04-24 20:19 52.37286 4.31828 36258 ft 411 kts 237°
2026-04-24 20:20 52.33904 4.24261 36262 ft 412 kts 237°
2026-04-24 20:20 52.30523 4.16718 36264 ft 412 kts 237°
2026-04-24 20:21 52.27123 4.09168 36269 ft 412 kts 237°
2026-04-24 20:21 52.23724 4.01644 36271 ft 412 kts 237°
2026-04-24 20:22 52.20888 3.95392 36243 ft 412 kts 237°
2026-04-24 20:22 52.17472 3.87867 36251 ft 413 kts 237°
2026-04-24 20:23 52.14051 3.80334 36256 ft 414 kts 237°
2026-04-24 20:23 52.10626 3.72801 36257 ft 415 kts 237°
2026-04-24 20:24 52.07168 3.65260 36266 ft 415 kts 236°
2026-04-24 20:24 52.03711 3.57746 36268 ft 415 kts 236°
2026-04-24 20:25 52.00256 3.50229 36275 ft 416 kts 236°
2026-04-24 20:25 51.96786 3.42714 36261 ft 416 kts 236°
2026-04-24 20:26 51.93304 3.35192 36259 ft 418 kts 236°
2026-04-24 20:26 51.89803 3.27675 36263 ft 419 kts 236°
2026-04-24 20:27 51.86439 3.20000 36269 ft 416 kts 244°
2026-04-24 20:27 51.84569 3.11265 36272 ft 411 kts 262°
2026-04-24 20:28 51.83955 3.02082 36271 ft 411 kts 265°
2026-04-24 20:28 51.83355 2.92891 36274 ft 412 kts 264°
2026-04-24 20:29 51.82733 2.83664 36270 ft 413 kts 264°
2026-04-24 20:29 51.82108 2.74437 36276 ft 413 kts 264°
2026-04-24 20:30 51.81488 2.65212 36283 ft 413 kts 264°
2026-04-24 20:30 51.80854 2.55983 36289 ft 413 kts 264°
2026-04-24 20:31 51.80208 2.46767 36295 ft 413 kts 264°
2026-04-24 20:31 51.79553 2.37542 36291 ft 413 kts 264°
2026-04-24 20:32 51.78906 2.28565 36294 ft 414 kts 264°
2026-04-24 20:32 51.78248 2.19324 36269 ft 415 kts 265°
2026-04-24 20:33 51.77705 2.10163 36279 ft 409 kts 265°
2026-04-24 20:33 51.77197 2.00995 36274 ft 410 kts 265°
2026-04-24 20:34 51.76664 1.91815 35614 ft 412 kts 265°
2026-04-24 20:34 51.76389 1.87208 34548 ft 412 kts 265°
2026-04-24 20:34 51.76108 1.82601 33397 ft 412 kts 265°
2026-04-24 20:35 51.75822 1.77990 32248 ft 414 kts 265°
2026-04-24 20:35 51.75532 1.73368 31145 ft 416 kts 265°
2026-04-24 20:35 51.75235 1.68704 30023 ft 418 kts 265°
2026-04-24 20:35 51.74939 1.64022 28785 ft 421 kts 265°
2026-04-24 20:36 51.74643 1.59305 27595 ft 423 kts 265°
2026-04-24 20:36 51.74345 1.54567 26753 ft 426 kts 265°
2026-04-24 20:36 51.74042 1.49808 26443 ft 426 kts 265°
2026-04-24 20:36 51.73737 1.45061 26257 ft 424 kts 265°
2026-04-24 20:37 51.73431 1.40337 25885 ft 425 kts 265°
2026-04-24 20:37 51.73118 1.35561 24795 ft 430 kts 265°
2026-04-24 20:37 51.72799 1.30771 23716 ft 431 kts 264°
2026-04-24 20:37 51.72480 1.25983 22476 ft 426 kts 264°
2026-04-24 20:38 51.72168 1.21251 21295 ft 423 kts 264°
2026-04-24 20:38 51.71857 1.16551 20182 ft 420 kts 264°
2026-04-24 20:38 51.71546 1.11885 19108 ft 419 kts 263°
2026-04-24 20:38 51.71230 1.07223 17998 ft 417 kts 263°
2026-04-24 20:39 51.70910 1.02581 17277 ft 416 kts 263°
2026-04-24 20:39 51.70588 0.97931 16664 ft 418 kts 263°
2026-04-24 20:39 51.70266 0.93289 16002 ft 416 kts 263°
2026-04-24 20:39 51.69948 0.88686 14919 ft 411 kts 263°
2026-04-24 20:40 51.69635 0.84164 14116 ft 397 kts 263°
2026-04-24 20:40 51.69339 0.79910 13851 ft 366 kts 263°
2026-04-24 20:40 51.69063 0.76000 13697 ft 337 kts 263°
2026-04-24 20:40 51.68807 0.72391 13517 ft 314 kts 263°
2026-04-24 20:41 51.68563 0.68967 13011 ft 304 kts 263°
2026-04-24 20:41 51.68328 0.65689 12391 ft 300 kts 263°
2026-04-24 20:41 51.68088 0.62334 11753 ft 297 kts 263°
2026-04-24 20:41 51.67855 0.59075 11452 ft 286 kts 264°
2026-04-24 20:42 51.67622 0.55843 11353 ft 291 kts 264°
2026-04-24 20:42 51.67386 0.52601 11229 ft 291 kts 263°
2026-04-24 20:42 51.67147 0.49361 11094 ft 290 kts 264°
2026-04-24 20:42 51.66908 0.46128 10756 ft 294 kts 263°
2026-04-24 20:43 51.66668 0.42842 10382 ft 294 kts 264°
2026-04-24 20:43 51.66429 0.39589 10058 ft 292 kts 263°
2026-04-24 20:43 51.66189 0.36342 9660 ft 292 kts 263°
2026-04-24 20:43 51.65950 0.33108 9300 ft 290 kts 264°
2026-04-24 20:44 51.65712 0.29882 8937 ft 289 kts 263°
2026-04-24 20:44 51.65477 0.26705 8708 ft 284 kts 263°
2026-04-24 20:44 51.65243 0.23602 8577 ft 274 kts 263°
2026-04-24 20:44 51.65014 0.20603 8451 ft 266 kts 263°
2026-04-24 20:45 51.64835 0.17687 8332 ft 257 kts 266°
2026-04-24 20:45 51.64710 0.14874 8289 ft 248 kts 266°
2026-04-24 20:45 51.64593 0.12107 8298 ft 249 kts 266°
2026-04-24 20:45 51.64474 0.09311 8291 ft 249 kts 266°
2026-04-24 20:46 51.64355 0.06539 8295 ft 249 kts 266°
2026-04-24 20:46 51.64236 0.03755 8300 ft 249 kts 266°
2026-04-24 20:46 51.64115 0.00972 8295 ft 249 kts 266°
2026-04-24 20:46 51.63994 -0.01806 8286 ft 249 kts 266°
2026-04-24 20:47 51.63876 -0.04590 8293 ft 250 kts 266°
2026-04-24 20:47 51.63759 -0.07387 8298 ft 250 kts 266°
2026-04-24 20:47 51.63643 -0.10174 8300 ft 250 kts 266°
2026-04-24 20:47 51.63526 -0.12970 8302 ft 250 kts 266°
2026-04-24 20:48 51.63409 -0.15769 8303 ft 250 kts 266°
2026-04-24 20:48 51.63292 -0.18560 8304 ft 250 kts 266°
2026-04-24 20:48 51.63174 -0.21353 8146 ft 251 kts 266°
2026-04-24 20:48 51.63057 -0.24144 7846 ft 250 kts 266°
2026-04-24 20:49 51.62941 -0.26926 7554 ft 249 kts 266°
2026-04-24 20:49 51.62827 -0.29693 7339 ft 245 kts 266°
2026-04-24 20:49 51.62714 -0.32444 7298 ft 246 kts 266°
2026-04-24 20:49 51.62602 -0.35195 7273 ft 247 kts 266°
2026-04-24 20:50 51.62489 -0.37958 7179 ft 247 kts 266°
2026-04-24 20:50 51.62376 -0.40681 7064 ft 246 kts 266°
2026-04-24 20:50 51.62261 -0.43451 7004 ft 245 kts 266°
2026-04-24 20:50 51.62148 -0.46197 7006 ft 246 kts 266°
2026-04-24 20:51 51.62035 -0.48915 7020 ft 246 kts 266°
2026-04-24 20:51 51.61919 -0.51703 7019 ft 247 kts 266°
2026-04-24 20:51 51.61805 -0.54455 7012 ft 247 kts 266°
2026-04-24 20:51 51.61692 -0.57173 7018 ft 247 kts 266°
2026-04-24 20:52 51.61557 -0.59965 6872 ft 249 kts 260°
2026-04-24 20:52 51.60981 -0.62554 6607 ft 245 kts 243°
2026-04-24 20:52 51.60195 -0.64974 6319 ft 243 kts 241°
2026-04-24 20:52 51.59402 -0.67330 6044 ft 242 kts 241°
2026-04-24 20:53 51.58606 -0.69701 5762 ft 241 kts 241°
2026-04-24 20:53 51.57806 -0.72102 5482 ft 241 kts 241°
2026-04-24 20:53 51.57023 -0.74471 5216 ft 240 kts 241°
2026-04-24 20:53 51.56058 -0.76603 4942 ft 235 kts 216°
2026-04-24 20:54 51.54622 -0.77631 4660 ft 228 kts 188°
2026-04-24 20:54 51.53056 -0.77887 4380 ft 225 kts 182°
2026-04-24 20:54 51.51511 -0.78022 4081 ft 217 kts 181°
2026-04-24 20:54 51.50017 -0.78148 3807 ft 208 kts 181°
2026-04-24 20:55 51.48615 -0.78276 3579 ft 196 kts 181°
2026-04-24 20:55 51.47278 -0.78412 3284 ft 190 kts 181°
2026-04-24 20:55 51.45972 -0.78535 3049 ft 186 kts 176°
2026-04-24 20:55 51.44801 -0.77920 3001 ft 180 kts 137°
2026-04-24 20:56 51.44179 -0.76280 2766 ft 173 kts 98°
2026-04-24 20:56 51.44469 -0.74456 2515 ft 172 kts 54°
2026-04-24 20:56 51.45178 -0.72896 2514 ft 177 kts 60°
2026-04-24 20:56 51.45811 -0.71188 2499 ft 177 kts 61°
2026-04-24 20:57 51.46440 -0.69481 2518 ft 179 kts 61°
2026-04-24 20:57 51.47066 -0.67758 2417 ft 179 kts 64°
2026-04-24 20:57 51.47458 -0.65891 2231 ft 176 kts 80°
2026-04-24 20:57 51.47604 -0.63992 2027 ft 164 kts 86°
2026-04-24 20:58 51.47655 -0.62257 1817 ft 149 kts 88°
2026-04-24 20:58 51.47680 -0.60600 1626 ft 152 kts 89°
2026-04-24 20:58 51.47695 -0.58916 1449 ft 151 kts 89°
2026-04-24 20:58 51.47707 -0.57235 1218 ft 151 kts 89°
2026-04-24 20:59 51.47716 -0.55560 1002 ft 147 kts 89°
2026-04-24 20:59 51.47724 -0.53990 802 ft 136 kts 89°
2026-04-24 20:59 51.47730 -0.52505 620 ft 132 kts 89°
2026-04-24 20:59 51.47736 -0.51032 421 ft 132 kts 89°
2026-04-24 21:00 51.47742 -0.49571 265 ft 131 kts 89°
2026-04-24 21:00 51.47750 -0.48114 108 ft 128 kts 89°
2026-04-24 21:00 51.47756 -0.46902 92 ft 85 kts 90°
2026-04-24 21:00 51.47758 -0.46215 87 ft 44 kts 89°
2026-04-24 21:01 51.47761 -0.45741 84 ft 40 kts 90°
2026-04-24 21:01 51.47734 -0.45485 87 ft 16 kts 141°
2026-04-24 21:01 51.47628 -0.45468 86 ft 11 kts 179°
2026-04-24 21:01 51.47595 -0.45542 86 ft 10 kts 273°
2026-04-24 21:02 51.47596 -0.45660 86 ft 11 kts 269°